EGGPEGNT

Guest
Details From EGGP - Liverpool John Lennon
To EGNT - Newcastle
Flight Number -
Tags Routegen
Created
Modified
Stats Distance 110 nm / 204 km
Max Altitude 0 ft / 0 m
Waypoints 2
Social Downloads 19
Likes 0
Share

Download

Looking for another format? Having issues loading an existing format? Contact us
Advertisement - Login to hide

Notes

None

Route

EGGP EGNT

ID Type Via Altitude (ft/m) Position (lat/lon) Dist (leg/tot) Name
O EGGP APT - 0 / 0 53.33288 / -2.86602 - / 0 nm
O EGNT APT - 0 / 0 55.03353 / -1.70634 109 / 109 nm

Altitude Profile

Advertisement - Login to hide

EGGP

Details ICAO EGGP (LPL)
Name Liverpool John Lennon
Region United Kingdom
Timezone Europe/London (UTC+1.0)
Stats Elevation 81 ft / 25 m (AMSL)
Location 53.333600° -2.849780°
Runways 1
Magnetic Variation 1.269° W

METAR

EGGP 091720Z AUTO 01009KT 9999 BKN011/// BKN015/// OVC031/// 14/12 Q1014

Decode

TAF

TAF TAF EGGP 091103Z 0912/1012 07015KT 9999 BKN016 PROB30 TEMPO 0912/0918 6000 -RADZ BKN012 TEMPO 0918/0924 7000 SHRA BKN014 BECMG 0922/1001 30007KT BECMG 1001/1004 30018KT TEMPO 1006/1012 7000 SHRA BKN014

Decode

Departure Runways

ID Width Length Bearing (true/mag) Surface Threshold Overrun Markings Lighting
09 148 ft / 45 m 7,478 ft / 2,279 m 85.58° / 86.85° ASPHALT 194 ft / 59 m 0 ft / 0 m UK-PREC-APP CENTERLINE EDGE THRESHOLD CALVERT
27 148 ft / 45 m 7,478 ft / 2,279 m 265.61° / 266.87° ASPHALT 0 ft / 0 m 82 ft / 25 m UK-PREC-APP CENTERLINE EDGE THRESHOLD CALVERT TDZ

EGNT

Details ICAO EGNT (NCL)
Name Newcastle
Region United Kingdom
Timezone Europe/London (UTC+1.0)
Stats Elevation 266 ft / 81 m (AMSL)
Location 55.037900° -1.689790°
Runways 1
Magnetic Variation 1.058° W

METAR

EGNT 091720Z 13006KT 070V190 9999 FEW026 15/08 Q1014

Decode

TAF

TAF EGNT 091101Z 0912/1012 06004KT 9999 SCT020 TEMPO 1000/1012 6000 SHRA BKN014 PROB30 TEMPO 1002/1010 3000 +SHRA BKN008

Decode

Destination Runways

ID Width Length Bearing (true/mag) Surface Threshold Overrun Markings Lighting
07 150 ft / 46 m 7,626 ft / 2,325 m 65.14° / 66.19° ASPHALT 394 ft / 120 m 95 ft / 29 m PREC-APP CENTERLINE EDGE THRESHOLD CALVERT TDZ
25 150 ft / 46 m 7,626 ft / 2,325 m 245.16° / 246.22° ASPHALT 449 ft / 137 m 49 ft / 15 m PREC-APP CENTERLINE EDGE THRESHOLD CALVERT TDZ

Approach Navaids

Runway Type Ident Frequency Range Bearing (true/mag) Slope Elevation
07 DME INC 111.50 MHz 18 nm / 33 km - - 256 ft / 78 m (AMSL)
07 GS INC 111.50 MHz 10 nm / 19 km 65.15° / 66.21 ° 3.00° 266 ft / 81 m (AMSL)
07 LOC-ILS INC 111.50 MHz 18 nm / 33 km 65.15° / 66.21 ° - 266 ft / 81 m (AMSL)
25 LOC-ILS INWC 111.50 MHz 18 nm / 33 km 245.15° / 246.21 ° - 266 ft / 81 m (AMSL)
25 DME INWC 111.50 MHz 18 nm / 33 km - - 256 ft / 78 m (AMSL)
25 GS INWC 111.50 MHz 10 nm / 19 km 245.15° / 246.21 ° 3.00° 266 ft / 81 m (AMSL)

Popular Alternatives